www.pogodaiklimat.ru

Погода и климат >> Архив погоды >> Россия >> Оренбургская область >> Беляевка


ПОГОДА в Беляевке

  • Прогноз погоды в Беляевке
  • Монитор погоды в Беляевке
  • Климат города

АРХИВ ПОГОДЫ в Беляевке

Время (UTC), дата Ветер
(напр.,м/с)
 
Видим.   Явления Облачность Т
(С)
Тd
(С)
f
(%)
Тe
(С)
Тes
(С)
Комфортность P
(гПа)
Po
(гПа)
Тmin
(С)
Tmax
(С)
R
(мм)
R24
(мм)
S
(см)
09 10.12 З 5 20 км 4/0
[Ac trans]
-9.4 -13.0 75 -17 -16 1026.1 1008.6
12 10.12 З 3 20 км ясно -10.4 -13.4 79 -16 -16 1027.5 1009.8
15 10.12 З 1 10 км ясно -14.2 -15.6 89 -17 -17 1029.0 1011.1 -9.0
18 10.12 З 1 10 км ясно -18.6 -20.2 87 -21 -21 1030.2 1011.9
21 10.12 ЮЗ 1 10 км ясно -19.0 -20.9 85 -22 -22 1031.3 1013.0
00 11.12 штиль 0 10 км 10/0
[As op]
-20.0 -21.9 85 -20 -20 1032.3 1013.9
03 11.12 СЗ 1 4000 м слабый снег 10/0
[As op]
-14.6 -15.8 91 -17 -17 1032.4 1014.4 -22.0 0.1 2
06 11.12 штиль 0 4000 м дымка {снег} 10/0
[As op]
-14.5 -15.9 89 -15 -14 1033.3 1015.2
09 11.12 штиль 0 4000 м дымка ясно -10.9 -13.6 80 -11 -9 1033.2 1015.4
12 11.12 З 1 20 км ясно -13.1 -15.4 83 -15 -15 1033.9 1016.0
15 11.12 В 1 4000 м дымка 10/0 600 м
[As op]
-13.6 -15.1 88 -16 -16 1034.5 1016.5 -9.9
18 11.12 В 1 4000 м дымка ясно -17.2 -19.0 86 -20 -20 1035.0 1016.7
21 11.12 В 1 4000 м дымка ясно -15.5 -16.9 89 -18 -18 1035.1 1017.0
00 12.12 В 3 4000 м дымка 10/0
[As op]
-15.2 -16.9 87 -22 -22 1035.5 1017.4
03 12.12 В 4 4000 м дымка 10/0
[As op]
-14.0 -15.7 87 -22 -22 1035.6 1017.6 -17.5 2
06 12.12 В 5 20 км 10/0
[As op]
-13.1 -15.3 83 -21 -21 1036.1 1018.1
09 12.12 В 7 20 км 10/0
[As op]
-11.1 -13.7 81 -20 -20 1035.9 1018.1
12 12.12 В 5 20 км 10/0
[As trans]
-10.2 -13.0 80 -18 -18 1036.8 1019.0
15 12.12 В 4 10 км 10/0
[As op]
-12.7 -15.2 82 -20 -20 1038.0 1020.0 -10.0
18 12.12 В 6 10 км 10/0
[As op]
-11.1 -13.8 80 -20 -20 1038.2 1020.3
21 12.12 В 7 10 км 10/0
[As op]
-12.3 -15.0 80 -22 -22 1038.5 1020.5
00 13.12 В 6 10 км 10/0
[As op]
-13.3 -15.7 82 -22 -22 1039.5 1021.5
03 13.12 В 7 10 км 10/0
[As op]
-14.1 -16.3 83 -24 -24 1039.2 1021.1 -14.1 1
06 13.12 В 7
{10}
20 км 10/0
[As trans]
-13.8 -16.4 81 -24 -24 1040.3 1022.2 -14.1
09 13.12 В 7
{10}
20 км 6/0
[Ac As]
-13.4 -16.8 76 -23 -23 1040.0 1021.9
12 13.12 В 7 20 км 9/0
[Ac und]
-13.3 -16.4 77 -23 -23 1040.2 1022.2
15 13.12 В 6
{10}
10 км 10/0
[As op]
-15.1 -17.9 79 -25 -25 1040.8 1022.6 -13.1
18 13.12 В 6 10 км ясно -16.7 -19.3 80 -27 -27 1041.1 1022.8
21 13.12 В 6 10 км ясно -16.9 -19.5 80 -27 -27 1041.3 1023.0
00 14.12 В 5 10 км ясно -17.4 -19.8 82 -27 -27 1042.1 1023.7
03 14.12 В 5 10 км ясно -18.4 -20.8 81 -28 -28 1042.6 1024.1 -18.4 1
06 14.12 В 6 20 км ясно -17.5 -20.5 77 -28 -28 1042.9 1024.5 -18.8
09 14.12 В 2 50 км 6/0
[Ci fib]
-14.8 -18.7 72 -20 -19 1043.6 1024.5
12 14.12 В 6 20 км ясно -15.5 -19.1 74 -25 -25 1042.7 1024.4
15 14.12 В 4 10 км ясно -17.4 -20.4 77 -26 -26 1043.0 1024.6 -13.6
18 14.12 В 5 10 км ясно -18.2 -20.7 81 -28 -28 1043.1 1024.6
21 14.12 В 5 10 км ясно -18.2 -20.7 81 -28 -28 1042.5 1024.0
00 15.12 В 5 10 км ясно -18.1 -20.8 79 -28 -28 1042.5 1024.1
03 15.12 В 4 10 км ясно -17.2 -20.0 79 -25 -25 1042.6 1024.2 -18.5 1
06 15.12 В 6 20 км 9/0
[Ci fib]
-15.9 -19.2 76 -26 -26 1043.1 1024.8
09 15.12 В 6 20 км 9/0
[Ci fib]
-11.6 -15.9 70 -20 -20 1041.9 1023.9
12 15.12 В 5 20 км 9/0
[Ci fib]
-12.1 -16.0 73 -20 -20 1042.3 1024.3
15 15.12 В 6
{11}
10 км ясно -14.9 -18.0 77 -24 -24 1042.7 1024.4 -10.6
18 15.12 В 5 10 км ясно -15.7 -18.5 79 -25 -25 1042.5 1024.2
21 15.12 В 4 10 км 10/0
[As trans]
-16.9 -19.4 81 -25 -25 1042.6 1024.2
00 16.12 В 5 10 км 6/0
[Ci fib]
-17.5 -19.9 81 -27 -27 1042.7 1024.3
03 16.12 В 5 10 км ясно -18.9 -21.1 83 -29 -29 1042.8 1024.3 -18.9 0
06 16.12 В 5 20 км 9/0
[Ci fib]
-17.2 -19.8 80 -27 -26 1043.3 1024.9 -19.2
09 16.12 В 6 20 км 9/0
[Ci fib]
-12.6 -16.8 71 -22 -21 1042.2 1024.2
12 16.12 В 4 20 км 9/0
[Ci fib]
-13.4 -17.1 74 -21 -21 1042.3 1024.2
15 16.12 В 3 10 км ясно -16.2 -18.9 80 -23 -23 1043.0 1024.6 -11.8
18 16.12 В 2 10 км ясно -19.6 -21.9 82 -25 -25 1043.3 1024.7
21 16.12 В 4 10 км ясно -19.4 -21.7 82 -28 -28 1043.2 1024.6
00 17.12 В 3 10 км ясно -18.3 -21.1 79 -26 -26 1043.8 1025.2
03 17.12 В 3 10 км ясно -19.7 -22.4 79 -27 -27 1044.1 1025.5 -20.0 0
06 17.12 В 4 20 км 6/0
[Ci fib]
-17.9 -21.5 73 -26 -26 1043.8 1025.3 -20.8

 

Местоположение метеостанции Беляевка (Оренбургская область, Россия): широта 51.42 долгота 56.42 высота над уровнем моря 131 м.

В архиве по умолчанию представлена погода в Беляевке за последнюю неделю. Архивные данные за месяц целиком и за предыдущие месяцы, начиная с января 2011 года, Вы можете получить, выбрав интересующий диапазон дат из раскрывающегося списка и нажав кнопку "Ввод!".

Внимание! Время в таблицах - всемирное. Для получения местного времени необходимо прибавить поправку, которая в Беляевке равна 5 ч.

Смотрите также архив погоды в соседних городах и на ближайших метеорологических станциях:

Погода в Кувандыке (Оренбургская область, Россия) (66 км)
Погода в Акбулаке (Оренбургская область, Россия) (71 км)
Погода в Мартуке (Актюбинская область, Казахстан) (75 км)
Погода в Оренбурге (Оренбургская область, Россия) (96 км)
Погода в Троицком Т (Оренбургская область, Россия) (101 км)
Погода в Родниковке (Актюбинская область, Казахстан) (101 км)
Погода в Соль-Илецк (Оренбургская область, Россия) (102 км)
Погода в Зилаире (Башкирия, Россия) (112 км)
Погода в Кос-Истеке (Актюбинская область, Казахстан) (129 км)
Погода в Акъяре (Башкирия, Россия) (131 км)

Пояснения к столбцам:

Ветер - указаны скорость ветра в м/с - средняя за 10 мин, порывы в срок и между сроками (в фигурных скобках) и направление, откуда дует ветер: С - северный, СВ - северо-восточный, В - восточный, ЮВ - юго-восточный, Ю - южный, ЮЗ - юго-западный, З - западный, СЗ - северо-западный.
Видимость - горизонтальная дальность видимости в метрах или километрах. При видимости от 1 до 10 км при отсутствии осадков обычно наблюдается дымка, при ухудшении видимости до 1 км и менее - туман. В сухую погоду видимость может ухудшаться дымом, пылью или мглою.
Явления - указаны атмосферные явления, наблюдавшиеся в срок или в последний час перед сроком; фигурными скобками обозначены явления, наблюдавшиеся между сроками (за 1-3 часа до срока); квадратными скобками обозначены град или гололедные отложения с указанием их диаметра в мм.
Облачность - указаны через наклонную черту общая и нижняя облачность в баллах и высота нижней границы облаков в метрах; квадратными скобками обозначены формы облаков: Ci - перистые, Cs - перисто-слоистые, Cc - перисто-кучевые, Ac - высококучевые, As - высокослоистые, Sc - слоисто-кучевые, Ns - слоисто-дождевые, Cu - кучевые, Cb - кучево-дождевые. Подробнее классификацию облаков см. в Атласе облаков (PDF).
T - Температура воздуха - температура, измеренная на высоте 2 м над землей.
Td - Температура точки росы - температура, при понижении до которой содержащийся в воздухе водяной пар достигнет насыщения.
f - Относительная влажность воздуха - влажноcть воздуха, измеренная на высоте 2 м над землей.
Te - Эффективная температура - температура, которую ощущает одетый по сезону человек в тени. Характеристика душности погоды. При расчете учитывается влияние влажности воздуха и скорости ветра на теплоощущения человека.
Tes - Эффективная температура на солнце - температура, которую ощущает человек, с поправкой на солнечный нагрев. Характеристика знойности погоды. Зависит от высоты солнца над горизонтом, облачности и скорости ветра. Ночью, в пасмурную погоду, а также при ветре 12 м/с и более поправка равна нулю.
P - Атмосферное давление - приведенное к уровню моря атмосферное давление.
Po - Атмосферное давление - измеренное на уровне метеостанции атмосферное давление.
Tmin - Минимальная температура - минимум температуры воздуха на высоте 2 м над землей.
Tmax - Максимальная температура - максимум температуры воздуха на высоте 2 м над землей.
R - Количество осадков - Количество выпавших осадков за период времени, мм. При наведении курсора мыши на число - период времени, за который выпало указанное количество осадков.
R24 - Количество осадков - Количество выпавших осадков за 24 часа, мм.
S - Снежный покров - Высота снежного покрова, см. При наведении курсора мыши на число - состояние снежного покрова и степень покрытия местности в баллах.